Location: Coffee Ditch
(40.9640°N, 122.7500°W)
Time: 06:33:21
(UTC+00:00)

Cosmos 2251 Rocket - Pass Details

Date: 08 September 2024
Orbit: 763 x 788 km, 74.0° (Epoch: 05 October)

Event Time Altitude Azimuth Distance (km) Brightness Sun altitude
Exits shadow 12:43:42 15° 236° (SW) 1,969 5.0 -12.1°
Maximum altitude 12:47:30 36° 296° (WNW) 1,208 4.2 -11.5°
Drops below altitude 10° 12:52:21 10° 3° (N) 2,322 6.3 -10.6°
Sets 12:54:55 0° 12° (NNE) 3,249 7.2 -10.1°
